Weather Roundup
Issued by NWS Chicago, IL

Home | Current Version | Previous Version | Graphics & Text | Print | Product List | Glossary On
Versions: 1 2 3 4 5 6 7 8 9 10 11 12 13 14 15 16 17 18 19 20 21 22 23 24 25 26 27 28 29 30 31 32 33 34 35 36 37 38 39 40 41 42 43 44 45 46 47 48 49 50
000
NZUS59 KLOT 291502
HRRLOT

CHICAGO AREA WEATHER ROUNDUP
NATIONAL WEATHER SERVICE CHICAGO/ROMEOVILLE IL
1000 AM CDT SUN MAR 29 2015

NOTE: "FAIR" INDICATES FEW OR NO CLOUDS BELOW 12,000 FEET WITH NO
SIGNIFICANT WEATHER AND/OR OBSTRUCTIONS TO VISIBILITY.

* THESE STATIONS ARE NOT UNDER NWS QUALITY CONTROL. THEY ALSO MAY NOT
  REPORT WEATHER SUCH AS PRECIPITATION OR FOG.

ILZ005-006-012>014-019>023-291600-
NORTHEAST ILLINOIS

CITY           SKY/WX    TMP DP  RH WIND       PRES   REMARKS
OHARE          CLOUDY    36  17  46 S20G33    30.04F
MIDWAY         PTSUNNY   38  18  44 S18G32    30.08F
AURORA         CLOUDY    36  20  52 S23G30    30.01F
WAUKEGAN       PTSUNNY   37  17  44 S24G36    29.97F
DUPAGE AIRPORT CLOUDY    37  19  48 S26G36    30.01F
WHEELING       PTSUNNY   37  16  42 S22G31    30.04F
NORTHERLY IS     N/A     37  16  42 S26         N/A
$$

WIZ051-052-058>065-066-070>072-291600-
SOUTHEAST WISCONSIN

CITY           SKY/WX    TMP DP  RH WIND       PRES   REMARKS
MILWAUKEE      CLOUDY    37  17  44 S21G32    29.93F
KENOSHA*       PTSUNNY   37  17  44 S24G33    29.96F
RACINE*        CLOUDY    38  16  40 S17G26    29.96F
WAUKESHA       CLOUDY    34  16  47 S17G29    29.98F WCI  23
$$

INZ001>003-010>013-019-020-291600-
NORTHWEST INDIANA

CITY           SKY/WX    TMP DP  RH WIND       PRES   REMARKS
GARY*          PTSUNNY   39  12  33 S23       30.11
MICHIGAN CITY* NOT AVBL
RENSSELAER*    NOT AVBL
$$

LMZ740>746-291600-
SOUTHERN LAKE MICHIGAN

STATION/POSITION TIME  SKY/WX   TEMP WIND        PRES    VSBY
                                AIR  DIR/SP/G
                 (UTC)          (F)  (DEG/KT/KT) (MB)    (MI)
HARRISON CRIB    1400            34  180/ 27/ 33   N/A
BURNHAM HARBOR   1500            37  180/ 16/ 23   N/A
CALUMET HARBOR   1400            34  160/ 17/ 25 1018.0F
BURNS HARBOR     1400            34  180/ 18     1020.7F
MICHIGAN CITY    1400            32  160/ 17/ 23   N/A
$$

ABBREVIATIONS USED IN REMARKS
   TC - TEMPERATURE IN CELSIUS
  WCI - WIND CHILL INDEX
   HX - HEAT INDEX
  VSB - VISIBILITY
$$



USA.gov is the U.S. government's official web portal to all federal, state and local government web resources and services.